Weather History for KEWB - May, 2013

Change the Weather History Date:

Monday, May 13, 2013

  Actual Average (WUND) Record (WUND)
Temperature  
Mean Temperature 47 °F -  
Max Temperature 59 °F - - (-1)
Min Temperature 37 °F - - (-1)
Degree Days  
Heating Degree Days 18    
Moisture  
Dew Point 31 °F    
Average Humidity 49    
Maximum Humidity 89    
Minimum Humidity 34    
Precipitation  
Precipitation 0.00 in - - ()
Sea Level Pressure  
Sea Level Pressure 29.95 in    
Wind  
Wind Speed 8 mph (WSW)    
Max Wind Speed 23 mph    
Max Gust Speed 30 mph    
Visibility 10 miles    
Events      
Averages and records for this station are not official NWS values.
T = Trace of Precipitation, MM = Missing Value Source: NWS Daily Summary

Daily Weather History Graph

Daily Weather History Graph

Search for Another Location

Airport or City:

Trip Planner

Search our weather history database for the weather conditions in past years. The results will help you decide how hot, cold, wet, or windy it might be!

Date:

Astronomy

May. 13, 2013 Rise Set
Actual Time 5:26 AM EDT 7:54 PM EDT
Civil Twilight 4:54 AM EDT 8:26 PM EDT
Nautical Twilight 4:15 AM EDT 9:05 PM EDT
Astronomical Twilight 3:31 AM EDT 9:50 PM EDT
Moon 8:08 AM EDT (5/13) 11:02 PM EDT (5/13)
Length of Visible Light 15h 32m
Length of Day
14h 28m
Waxing Crescent, 12% of the Moon is Illuminated
May 13
Waxing Crescent
May 18
First Quarter
May 25
Full
May 31
Last Quarter
Jun 8
New

Hourly Weather History & Observations

Time (EDT) Temp. Windchill Dew Point Humidity Pressure Visibility Wind Dir Wind Speed Gust Speed Precip Events Conditions
12:53 AM 50.0 °F - 28.0 °F 43% 29.85 in 10.0 mi West 9.2 mph - N/A   Partly Cloudy
1:53 AM 46.9 °F - 30.0 °F 52% 29.87 in 10.0 mi West 5.8 mph - N/A   Clear
2:53 AM 45.0 °F 43.5 °F 30.9 °F 58% 29.88 in 10.0 mi West 3.5 mph - N/A   Clear
3:53 AM 42.1 °F 40.2 °F 33.1 °F 70% 29.89 in 10.0 mi WSW 3.5 mph - N/A   Clear
4:53 AM 39.0 °F 35.7 °F 35.1 °F 86% 29.91 in 10.0 mi SW 4.6 mph - N/A   Clear
5:53 AM 37.9 °F 35.5 °F 35.1 °F 89% 29.93 in 10.0 mi West 3.5 mph - N/A   Clear
6:53 AM 46.9 °F - 35.1 °F 63% 29.95 in 10.0 mi West 6.9 mph - N/A   Clear
7:53 AM 51.1 °F - 33.1 °F 50% 29.96 in 10.0 mi West 11.5 mph 19.6 mph N/A   Clear
8:53 AM 53.1 °F - 32.0 °F 45% 29.96 in 10.0 mi WSW 11.5 mph 18.4 mph N/A   Clear
9:53 AM 54.0 °F - 28.9 °F 38% 29.97 in 10.0 mi SW 11.5 mph 19.6 mph N/A   Clear
10:53 AM 55.0 °F - 30.0 °F 38% 29.97 in 10.0 mi WSW 10.4 mph 18.4 mph N/A   Clear
11:53 AM 57.0 °F - 28.9 °F 34% 29.97 in 10.0 mi West 5.8 mph 21.9 mph N/A   Clear
12:53 PM 57.9 °F - 35.1 °F 42% 29.96 in 10.0 mi SSW 15.0 mph 23.0 mph N/A   Partly Cloudy
1:53 PM 57.9 °F - 33.1 °F 39% 29.96 in 10.0 mi SSW 23.0 mph 29.9 mph N/A   Scattered Clouds
2:53 PM 57.0 °F - 32.0 °F 39% 29.95 in 10.0 mi SW 19.6 mph 25.3 mph N/A   Partly Cloudy
4:53 PM 55.9 °F - 30.9 °F 39% 29.93 in 10.0 mi SW 15.0 mph 24.2 mph N/A   Clear
5:53 PM 54.0 °F - 30.9 °F 41% 29.92 in 10.0 mi SW 12.7 mph 25.3 mph N/A   Clear
6:53 PM 52.0 °F - 33.1 °F 49% 29.94 in 10.0 mi SW 9.2 mph 21.9 mph N/A   Overcast
7:53 PM 51.8 °F - 33.8 °F 50% 29.96 in 10.0 mi WSW 6.9 mph - N/A   Overcast
8:53 PM 51.1 °F - 28.0 °F 41% 29.99 in 10.0 mi Variable 5.8 mph - N/A   Scattered Clouds
9:53 PM 50.0 °F - 26.1 °F 39% 30.01 in 10.0 mi NW 8.1 mph - N/A   Mostly Cloudy
10:53 PM 48.9 °F - 26.1 °F 41% 30.01 in 10.0 mi NNW 4.6 mph - N/A   Mostly Cloudy
11:53 PM 48.0 °F - 27.0 °F 44% 30.01 in 10.0 mi NW 4.6 mph - N/A   Overcast